Regional Weather Roundup
Issued by NWS

Home | Current Version | Previous Version | Text Only | Print | Product List | Glossary Off
Versions: 1 2 3 4 5 6 7 8 9 10 11 12 13 14 15 16 17 18 19 20 21 22 23 24 25 26 27 28 29 30 31 32 33 34 35 36 37 38 39 40 41 42 43 44 45 46 47 48 49 50

109
ASUS45 KABQ 261110
RWRNM
NEW MEXICO REGIONAL WEATHER ROUNDUP
NATIONAL WEATHER SERVICE ALBUQUERQUE NM
500 AM MDT WED APR 26 2017

NOTE: "FAIR" MEANS FEW OR NO CLOUDS BELOW 12,000 FEET AGL WITH NO
       SIGNIFICANT WEATHER OR OBSTRUCTIONS TO VISION.

      THIS PRODUCT IS RELEASED AS TWO VERSIONS.  ONE VERSION NEAR
      THE TOP OF THE HOUR CONTAINING PRELIMINARY DATA FROM ALBUQUERQUE
      AND OTHER STATIONS.  A FINAL VERSION WITH ADDITIONAL DATA IS
      ISSUED ABOUT 10 MINUTES AFTER THE HOUR.

NMZ501-503-504-510>518-261200-
NORTHWEST PLATEAU/NORTHCENTRAL MOUNTAINS

CITY           SKY/WX    TMP DP  RH WIND       PRES   REMARKS
FARMINGTON     FAIR      36  27  69 W9        29.87R WCI  29
LOS ALAMOS     FAIR      34  28  79 CALM      29.87R
SANTA FE       FAIR      32  31  96 NW7       29.84R WCI  26
TAOS             N/A     30  21  69 NW3       29.85R
ANGEL FIRE     CLOUDY    28  26  91 CALM      29.84R

$$
NMZ402-403-502-505>509-261200-
WESTCENTRAL MOUNTAINS/SOUTHWEST MOUNTAINS

CITY           SKY/WX    TMP DP  RH WIND       PRES   REMARKS
GALLUP         FAIR      28  23  81 NW3       29.95R
GRANTS         FAIR      30  23  77 NW12      29.95R WCI  20
SILVER CITY    FAIR      44  26  50 NW6       29.89R

$$
NMZ407-409-411-412-261200-
SOUTHERN DESERTS

CITY           SKY/WX    TMP DP  RH WIND       PRES   REMARKS
DEMING         FAIR      48  28  46 W5        29.86R
LAS CRUCES     FAIR      48  27  44 NW5       29.86R
HOLLOMAN AFB   FAIR      49  28  44 N9        29.86R
ALAMOGORDO     FAIR      54  27  35 N8        29.84R
T OR C         FAIR      52  21  29 NW15G23   29.84S

$$
NMZ519>523-261200-
CENTRAL VALLEYS/CENTRAL HIGHLANDS

CITY           SKY/WX    TMP DP  RH WIND       PRES   REMARKS
ALBUQUERQUE    FAIR      43  29  57 N9        29.87R
MORIARTY ARPT  FAIR      35  30  81 N10       29.86R WCI  28
CLINES CORNERS FAIR      32  26  78 NW20      29.83R WCI  20
BELEN          FAIR      39  25  57 N5        29.88R
SOCORRO        FAIR      50  20  30 NW21G32   29.85R

$$
NMZ524>526-539-540-261200-
SOUTHCENTRAL MOUNTAINS

CITY           SKY/WX    TMP DP  RH WIND       PRES   REMARKS
RUIDOSO        FAIR      39  23  52 NW16G26   29.86R WCI  30

$$
NMZ527>531-261200-
NORTHEAST HIGHLANDS/NORTHEAST PLAINS

CITY           SKY/WX    TMP DP  RH WIND       PRES   REMARKS
LAS VEGAS      FAIR      35  29  78 N18       29.81R WCI  24
RATON          FAIR      35  27  72 N16       29.79R WCI  25
CLAYTON        CLOUDY    35  35 100 N17       29.77R WCI  25

$$
NMZ532>537-261200-
EASTCENTRAL PLAINS

CITY           SKY/WX    TMP DP  RH WIND       PRES   REMARKS
SANTA ROSA     CLOUDY    42  36  78 N18G24    29.79R
TUCUMCARI      RAIN      42  39  89 N20G28    29.77R FOG
CANNON AFB     CLOUDY    45  45 100 NW23G35   29.70R
CLOVIS AIRPORT MOCLDY    45  39  81 NW18      29.70S

$$
NMZ028-029-538-261200-
SOUTHEAST PLAINS

CITY           SKY/WX    TMP DP  RH WIND       PRES   REMARKS
ROSWELL        FAIR      55  26  32 NW18        N/A
ARTESIA        FAIR      52  25  35 N5        29.74R
CARLSBAD       FAIR      59  28  30 W12       29.70S
HOBBS          FAIR      55  25  30 W20       29.70S


$$




USA.gov is the U.S. government's official web portal to all federal, state and local government web resources and services.